This demonstration page uses our WeatherBlox Daily Observations layout. Learn more.

Left ArrowRight Arrow

Hourly Observations for September 1, 2021

Temp ( °F °C ) Dew Point ( °F °C ) Humidity (%) Winds ( mph kmh ) Pressure ( in mb ) Visibility ( mi km ) Precip ( " mm )
12:54 am 00:54 Clear 69 20.6 63 17.2 81 81 ESE 12 19 29.86 1011 10 16 N/A
1:54 am 01:54 Clear 68 20 63 17.2 84 84 ESE 10 17 29.86 1011 10 16 N/A
2:54 am 02:54 Clear 67 19.4 62 16.7 84 84 SE 9 15 29.86 1011 10 16 N/A
3:54 am 03:54 Cloudy 66 18.9 62 16.7 87 87 ESE 8 13 29.87 1012 10 16 N/A
4:10 am 04:10 Cloudy 66 18.9 62 16.7 87 87 SE 9 15 29.88 1012 10 16 N/A
4:54 am 04:54 Mostly Cloudy 66 18.9 62 16.7 87 87 ESE 8 13 29.88 1012 10 16 N/A
5:33 am 05:33 Partly Cloudy 65 18.3 61 16.1 87 87 ESE 9 15 29.87 1012 10 16 N/A
5:54 am 05:54 Mostly Clear 65 18.3 61 16.1 87 87 E 8 13 29.88 1012 10 16 N/A
6:54 am 06:54 Clear 64 17.8 60 15.6 87 87 E 8 13 29.89 1012 10 16 N/A
7:09 am 07:09 Mostly Sunny 64 17.8 60 15.6 87 87 E 8 13 29.89 1012 8 13 N/A
7:31 am 07:31 Mostly Cloudy 64 17.8 60 15.6 87 87 E 8 13 29.90 1012 8 13 N/A
7:54 am 07:54 Mostly Cloudy 64 17.8 60 15.6 87 87 E 8 13 29.91 1013 8 13 N/A
8:54 am 08:54 Cloudy 65 18.3 61 16.1 87 87 ESE 9 15 29.93 1014 9 14 N/A
9:28 am 09:28 Cloudy 66 18.9 61 16.1 84 84 SE 13 20 29.93 1014 10 16 N/A
9:54 am 09:54 Cloudy 67 19.4 61 16.1 81 81 ESE 10 17 29.94 1014 10 16 N/A
10:54 am 10:54 Mostly Cloudy 70 21.1 61 16.1 73 73 SE 14 22 29.94 1014 10 16 N/A
11:22 am 11:22 Mostly Cloudy 71 21.7 62 16.7 73 73 ESE 16 26 29.93 1014 10 16 N/A
11:54 am 11:54 Mostly Cloudy 73 22.8 62 16.7 69 69 SE 14 22 29.93 1014 10 16 N/A
12:06 pm 12:06 Partly Cloudy 73 22.8 62 16.7 69 69 SE 15 24 29.92 1013 10 16 N/A
12:54 pm 12:54 Sunny 75 23.9 63 17.2 66 66 SE 14 22 29.93 1014 10 16 N/A
1:54 pm 13:54 Sunny 78 25.6 64 17.8 62 62 ESE 14 22 29.91 1013 10 16 N/A
2:54 pm 14:54 Mostly Sunny 80 26.7 65 18.3 60 60 ESE 16 26 29.90 1013 10 16 N/A
3:54 pm 15:54 Sunny 80 26.7 65 18.3 60 60 ESE 14 22 29.89 1012 10 16 N/A
4:54 pm 16:54 Sunny 80 26.7 65 18.3 60 60 ESE 14 22 29.88 1012 10 16 N/A
5:54 pm 17:54 Sunny 79 26.1 65 18.3 62 62 ESE 15 24 29.88 1012 10 16 N/A
6:54 pm 18:54 Sunny 78 25.6 65 18.3 64 64 ESE 15 24 29.88 1012 10 16 N/A
7:54 pm 19:54 Sunny 76 24.4 65 18.3 69 69 ESE 10 17 29.89 1012 10 16 N/A
8:54 pm 20:54 Clear 74 23.3 65 18.3 74 74 SE 10 17 29.90 1013 10 16 N/A
9:54 pm 21:54 Clear 74 23.3 65 18.3 74 74 SE 13 20 29.91 1013 10 16 N/A
10:54 pm 22:54 Clear 73 22.8 64 17.8 74 74 SE 12 19 29.91 1013 10 16 N/A
11:54 pm 23:54 Clear 72 22.2 64 17.8 76 76 SE 14 22 29.91 1013 10 16 N/A

Powered by AerisWeather